IGO361 VAPO-VOBL

Flight info

Callsign IGO361
Flight time 1h 5m
Altitude 35000
Route AVKOR2A AVKOR W128 EPKOS Q9 RIKBU RIKBU7E
Aircraft A21N/M-SDE2E3FGHIRWXY/LB1

Departure

Time 2026-05-07 19:27
Airport Pune International Airport (VAPO)

Arrival

Time 2026-05-07 20:32
Airport Kempegowda International Airport Bengaluru (VOBL)
Time Latitude Longitude Altitude Speed Heading
2026-05-07 19:04 18.57972 73.91133 1922 ft 0 kts 189°
2026-05-07 19:15 18.57973 73.91133 1922 ft 1 kts 188°
2026-05-07 19:15 18.57981 73.91134 1922 ft 1 kts 188°
2026-05-07 19:15 18.57989 73.91135 1922 ft 1 kts 188°
2026-05-07 19:15 18.57997 73.91136 1922 ft 1 kts 178°
2026-05-07 19:16 18.58005 73.91136 1922 ft 1 kts 163°
2026-05-07 19:16 18.58013 73.91133 1922 ft 1 kts 147°
2026-05-07 19:16 18.58018 73.91130 1924 ft 1 kts 137°
2026-05-07 19:16 18.58025 73.91122 1921 ft 1 kts 117°
2026-05-07 19:17 18.58028 73.91117 1921 ft 1 kts 106°
2026-05-07 19:17 18.58030 73.91109 1922 ft 1 kts 98°
2026-05-07 19:17 18.58030 73.91107 1922 ft 0 kts 98°
2026-05-07 19:20 18.58030 73.91108 1922 ft 0 kts 98°
2026-05-07 19:20 18.58027 73.91132 1924 ft 6 kts 98°
2026-05-07 19:20 18.58025 73.91188 1921 ft 3 kts 70°
2026-05-07 19:21 18.58050 73.91202 1921 ft 6 kts 27°
2026-05-07 19:21 18.58104 73.91228 1920 ft 11 kts 39°
2026-05-07 19:21 18.58110 73.91313 1922 ft 14 kts 94°
2026-05-07 19:21 18.58101 73.91431 1922 ft 18 kts 95°
2026-05-07 19:22 18.58090 73.91575 1922 ft 22 kts 95°
2026-05-07 19:22 18.58082 73.91750 1922 ft 25 kts 92°
2026-05-07 19:22 18.58070 73.91938 1922 ft 25 kts 97°
2026-05-07 19:22 18.58060 73.92107 1922 ft 22 kts 95°
2026-05-07 19:23 18.58046 73.92280 1922 ft 25 kts 94°
2026-05-07 19:23 18.58034 73.92475 1922 ft 28 kts 92°
2026-05-07 19:23 18.58023 73.92689 1922 ft 30 kts 94°
2026-05-07 19:23 18.58012 73.92840 1922 ft 21 kts 94°
2026-05-07 19:24 18.58005 73.92983 1922 ft 11 kts 83°
2026-05-07 19:24 18.58059 73.93004 1922 ft 0 kts
2026-05-07 19:25 18.58074 73.93004 1922 ft 5 kts
2026-05-07 19:25 18.58126 73.93006 1922 ft 10 kts
2026-05-07 19:25 18.58164 73.92952 1922 ft 2 kts 262°
2026-05-07 19:26 18.58164 73.92939 1922 ft 2 kts 271°
2026-05-07 19:26 18.58172 73.92776 1922 ft 62 kts 274°
2026-05-07 19:26 18.58224 73.92026 1922 ft 139 kts 273°
2026-05-07 19:26 18.58301 73.90812 2109 ft 181 kts 274°
2026-05-07 19:27 18.58398 73.89434 2760 ft 197 kts 274°
2026-05-07 19:27 18.58511 73.87919 3395 ft 211 kts 275°
2026-05-07 19:27 18.58649 73.86362 4095 ft 219 kts 276°
2026-05-07 19:27 18.58800 73.84701 4382 ft 244 kts 277°
2026-05-07 19:28 18.58786 73.82824 4733 ft 269 kts 255°
2026-05-07 19:28 18.57829 73.81074 5225 ft 285 kts 221°
2026-05-07 19:28 18.56055 73.80156 6019 ft 289 kts 186°
2026-05-07 19:28 18.54114 73.80403 6755 ft 289 kts 152°
2026-05-07 19:29 18.52607 73.81751 7516 ft 286 kts 118°
2026-05-07 19:29 18.51783 73.83670 8290 ft 288 kts 108°
2026-05-07 19:29 18.51008 73.85628 9120 ft 292 kts 120°
2026-05-07 19:29 18.49648 73.87238 9904 ft 299 kts 139°
2026-05-07 19:30 18.47895 73.88500 10392 ft 316 kts 148°
2026-05-07 19:30 18.45858 73.89623 10632 ft 340 kts 153°
2026-05-07 19:30 18.43663 73.90695 11069 ft 352 kts 154°
2026-05-07 19:30 18.41469 73.91734 11817 ft 354 kts 154°
2026-05-07 19:31 18.39159 73.92721 12592 ft 356 kts 161°
2026-05-07 19:31 18.36747 73.93393 13330 ft 360 kts 169°
2026-05-07 19:31 18.34284 73.93696 13998 ft 364 kts 175°
2026-05-07 19:31 18.31738 73.93887 14638 ft 367 kts 175°
2026-05-07 19:32 18.29163 73.94083 15254 ft 370 kts 175°
2026-05-07 19:32 18.26587 73.94305 15888 ft 372 kts 174°
2026-05-07 19:32 18.23995 73.94549 16489 ft 375 kts 174°
2026-05-07 19:32 18.21365 73.94810 17085 ft 378 kts 174°
2026-05-07 19:33 18.18778 73.95072 17631 ft 382 kts 174°
2026-05-07 19:33 18.16068 73.95347 18182 ft 385 kts 174°
2026-05-07 19:33 18.13412 73.95615 18605 ft 390 kts 174°
2026-05-07 19:33 18.10675 73.95889 18995 ft 396 kts 175°
2026-05-07 19:34 18.07903 73.96164 19378 ft 402 kts 175°
2026-05-07 19:34 18.05112 73.96439 19796 ft 405 kts 175°
2026-05-07 19:34 18.02292 73.96717 20212 ft 409 kts 174°
2026-05-07 19:34 17.99433 73.97058 20612 ft 414 kts 173°
2026-05-07 19:35 17.96560 73.97452 20993 ft 418 kts 173°
2026-05-07 19:35 17.93670 73.97866 21364 ft 422 kts 173°
2026-05-07 19:35 17.90739 73.98284 21727 ft 426 kts 173°
2026-05-07 19:35 17.87790 73.98699 22088 ft 430 kts 173°
2026-05-07 19:36 17.84801 73.99113 22442 ft 434 kts 173°
2026-05-07 19:36 17.81792 73.99524 22786 ft 438 kts 173°
2026-05-07 19:36 17.78761 73.99936 23126 ft 441 kts 173°
2026-05-07 19:36 17.75688 74.00352 23445 ft 445 kts 174°
2026-05-07 19:37 17.72638 74.00763 23751 ft 447 kts 174°
2026-05-07 19:37 17.69551 74.01179 24102 ft 448 kts 174°
2026-05-07 19:37 17.66413 74.01600 24449 ft 449 kts 174°
2026-05-07 19:37 17.63282 74.02018 24775 ft 450 kts 174°
2026-05-07 19:38 17.60209 74.02429 25092 ft 452 kts 174°
2026-05-07 19:38 17.57085 74.02847 25407 ft 453 kts 174°
2026-05-07 19:38 17.53951 74.03268 25719 ft 454 kts 174°
2026-05-07 19:38 17.50803 74.03690 26036 ft 455 kts 174°
2026-05-07 19:39 17.47653 74.04113 26338 ft 457 kts 174°
2026-05-07 19:39 17.44481 74.04538 26634 ft 458 kts 174°
2026-05-07 19:39 17.41352 74.04958 26943 ft 459 kts 174°
2026-05-07 19:39 17.38174 74.05384 27204 ft 461 kts 174°
2026-05-07 19:40 17.34936 74.05818 27501 ft 462 kts 174°
2026-05-07 19:40 17.31754 74.06244 27779 ft 463 kts 174°
2026-05-07 19:40 17.28543 74.06674 28060 ft 464 kts 174°
2026-05-07 19:40 17.25336 74.07103 28336 ft 466 kts 174°
2026-05-07 19:41 17.22116 74.07534 28595 ft 467 kts 174°
2026-05-07 19:41 17.18879 74.07967 28852 ft 468 kts 173°
2026-05-07 19:41 17.15643 74.08400 29117 ft 469 kts 173°
2026-05-07 19:41 17.12457 74.08826 29363 ft 471 kts 173°
2026-05-07 19:42 17.09147 74.09268 29625 ft 472 kts 173°
2026-05-07 19:42 17.05920 74.09700 29879 ft 473 kts 173°
2026-05-07 19:42 17.02643 74.10138 30110 ft 474 kts 173°
2026-05-07 19:42 16.99357 74.10577 30307 ft 476 kts 173°
2026-05-07 19:43 16.96072 74.11016 30527 ft 477 kts 173°
2026-05-07 19:43 16.92796 74.11602 30736 ft 479 kts 165°
2026-05-07 19:43 16.89678 74.12824 30939 ft 481 kts 153°
2026-05-07 19:43 16.86845 74.14699 31201 ft 481 kts 141°
2026-05-07 19:44 16.84463 74.17103 31463 ft 481 kts 129°
2026-05-07 19:44 16.82428 74.19860 31726 ft 481 kts 126°
2026-05-07 19:44 16.80455 74.22681 32004 ft 480 kts 127°
2026-05-07 19:44 16.78456 74.25480 32278 ft 479 kts 128°
2026-05-07 19:45 16.76421 74.28235 32529 ft 479 kts 129°
2026-05-07 19:45 16.74355 74.30969 32761 ft 479 kts 129°
2026-05-07 19:45 16.72284 74.33678 33023 ft 478 kts 130°
2026-05-07 19:45 16.70204 74.36388 33256 ft 477 kts 130°
2026-05-07 19:46 16.68130 74.39098 33486 ft 477 kts 130°
2026-05-07 19:46 16.66066 74.41803 33692 ft 476 kts 130°
2026-05-07 19:46 16.64001 74.44507 33913 ft 475 kts 130°
2026-05-07 19:46 16.61934 74.47210 34111 ft 474 kts 130°
2026-05-07 19:47 16.59855 74.49932 34281 ft 474 kts 130°
2026-05-07 19:47 16.57797 74.52630 34469 ft 473 kts 130°
2026-05-07 19:47 16.55749 74.55316 34644 ft 473 kts 130°
2026-05-07 19:47 16.53729 74.57968 34805 ft 472 kts 130°
2026-05-07 19:48 16.49635 74.63345 34869 ft 470 kts 130°
2026-05-07 19:48 16.45588 74.68648 34868 ft 470 kts 130°
2026-05-07 19:49 16.41506 74.74000 34871 ft 470 kts 130°
2026-05-07 19:49 16.37436 74.79326 34865 ft 470 kts 130°
2026-05-07 19:50 16.33368 74.84655 34867 ft 469 kts 130°
2026-05-07 19:50 16.29990 74.89071 34867 ft 469 kts 130°
2026-05-07 19:51 16.25916 74.94396 34863 ft 469 kts 131°
2026-05-07 19:51 16.21864 74.99687 34861 ft 469 kts 131°
2026-05-07 19:52 16.17815 75.04973 34858 ft 469 kts 131°
2026-05-07 19:52 16.13752 75.10274 34855 ft 469 kts 131°
2026-05-07 19:53 16.09692 75.15567 34858 ft 469 kts 131°
2026-05-07 19:53 16.05598 75.20901 34853 ft 469 kts 131°
2026-05-07 19:54 16.01525 75.26204 34859 ft 469 kts 131°
2026-05-07 19:54 15.97452 75.31504 34858 ft 469 kts 131°
2026-05-07 19:55 15.93385 75.36790 34864 ft 469 kts 131°
2026-05-07 19:55 15.89294 75.42108 34869 ft 469 kts 131°
2026-05-07 19:56 15.85214 75.47405 34878 ft 469 kts 131°
2026-05-07 19:56 15.81136 75.52697 34882 ft 469 kts 131°
2026-05-07 19:57 15.77054 75.57994 34886 ft 468 kts 131°
2026-05-07 19:57 15.72969 75.63277 34892 ft 467 kts 131°
2026-05-07 19:58 15.68924 75.68509 34889 ft 467 kts 131°
2026-05-07 19:58 15.64858 75.73771 34888 ft 466 kts 131°
2026-05-07 19:59 15.60798 75.79020 34885 ft 465 kts 131°
2026-05-07 19:59 15.56740 75.84262 34879 ft 464 kts 131°
2026-05-07 20:00 15.52720 75.89449 34876 ft 464 kts 131°
2026-05-07 20:00 15.48670 75.94674 34873 ft 464 kts 131°
2026-05-07 20:01 15.44619 75.99897 34871 ft 463 kts 131°
2026-05-07 20:01 15.40598 76.05077 34870 ft 463 kts 131°
2026-05-07 20:02 15.36557 76.10279 34869 ft 463 kts 131°
2026-05-07 20:02 15.32505 76.15492 34870 ft 463 kts 131°
2026-05-07 20:03 15.28455 76.20699 34866 ft 464 kts 131°
2026-05-07 20:03 15.24422 76.25879 34873 ft 464 kts 131°
2026-05-07 20:04 15.20356 76.31095 34879 ft 465 kts 131°
2026-05-07 20:04 15.15860 76.35953 34886 ft 464 kts 142°
2026-05-07 20:05 15.10664 76.39818 34887 ft 463 kts 151°
2026-05-07 20:05 15.05160 76.43317 34897 ft 463 kts 150°
2026-05-07 20:06 14.99687 76.46885 34904 ft 464 kts 149°
2026-05-07 20:06 14.94224 76.50496 34914 ft 465 kts 148°
2026-05-07 20:07 14.88794 76.54082 34920 ft 466 kts 148°
2026-05-07 20:07 14.83308 76.57691 34924 ft 466 kts 148°
2026-05-07 20:08 14.77818 76.61290 34931 ft 466 kts 148°
2026-05-07 20:08 14.72379 76.64851 34699 ft 462 kts 148°
2026-05-07 20:09 14.69622 76.66655 34142 ft 462 kts 148°
2026-05-07 20:09 14.66961 76.68395 33198 ft 468 kts 148°
2026-05-07 20:09 14.64159 76.70227 32135 ft 473 kts 148°
2026-05-07 20:10 14.58606 76.73854 30778 ft 465 kts 148°
2026-05-07 20:10 14.55872 76.75637 29856 ft 468 kts 148°
2026-05-07 20:10 14.53106 76.77442 29039 ft 465 kts 148°
2026-05-07 20:10 14.50387 76.79214 28532 ft 455 kts 148°
2026-05-07 20:11 14.47748 76.80934 28256 ft 442 kts 148°
2026-05-07 20:11 14.45147 76.82627 27904 ft 440 kts 149°
2026-05-07 20:11 14.42564 76.84308 27375 ft 439 kts 148°
2026-05-07 20:11 14.39980 76.85989 26854 ft 434 kts 148°
2026-05-07 20:12 14.37476 76.87618 26353 ft 428 kts 148°
2026-05-07 20:12 14.34972 76.89248 25831 ft 422 kts 149°
2026-05-07 20:12 14.32502 76.90854 25330 ft 417 kts 149°
2026-05-07 20:12 14.30057 76.92444 24828 ft 412 kts 149°
2026-05-07 20:13 14.27644 76.94012 24334 ft 407 kts 149°
2026-05-07 20:13 14.25256 76.95563 23831 ft 404 kts 148°
2026-05-07 20:13 14.22881 76.97105 23306 ft 400 kts 148°
2026-05-07 20:13 14.20541 76.98624 22742 ft 396 kts 148°
2026-05-07 20:14 14.18224 77.00131 21964 ft 400 kts 148°
2026-05-07 20:14 14.15832 77.01687 21519 ft 413 kts 148°
2026-05-07 20:14 14.13396 77.03272 21254 ft 413 kts 148°
2026-05-07 20:14 14.10970 77.04851 20765 ft 412 kts 148°
2026-05-07 20:15 14.08555 77.06424 20247 ft 409 kts 148°
2026-05-07 20:15 14.06165 77.07979 19742 ft 403 kts 148°
2026-05-07 20:15 14.03804 77.09516 19231 ft 398 kts 148°
2026-05-07 20:15 14.01465 77.11038 18729 ft 393 kts 148°
2026-05-07 20:16 13.99152 77.12544 17996 ft 395 kts 148°
2026-05-07 20:16 13.96843 77.14045 17442 ft 389 kts 148°
2026-05-07 20:16 13.94578 77.15514 17160 ft 381 kts 148°
2026-05-07 20:16 13.92321 77.16978 16703 ft 383 kts 148°
2026-05-07 20:17 13.90064 77.18441 16212 ft 381 kts 147°
2026-05-07 20:17 13.87875 77.19857 15739 ft 376 kts 147°
2026-05-07 20:17 13.85669 77.21284 15251 ft 371 kts 147°
2026-05-07 20:17 13.83499 77.22690 14797 ft 365 kts 147°
2026-05-07 20:18 13.81357 77.24078 14326 ft 361 kts 147°
2026-05-07 20:18 13.79247 77.25447 13867 ft 357 kts 146°
2026-05-07 20:18 13.77183 77.26786 13684 ft 343 kts 146°
2026-05-07 20:18 13.75204 77.28071 13552 ft 329 kts 146°
2026-05-07 20:19 13.73303 77.29306 13417 ft 315 kts 146°
2026-05-07 20:19 13.71488 77.30486 13291 ft 301 kts 146°
2026-05-07 20:19 13.69753 77.31615 13186 ft 288 kts 146°
2026-05-07 20:19 13.68084 77.32701 12655 ft 292 kts 145°
2026-05-07 20:20 13.66347 77.33831 12176 ft 294 kts 145°
2026-05-07 20:20 13.64591 77.34971 12053 ft 295 kts 145°
2026-05-07 20:20 13.62879 77.36082 11792 ft 295 kts 145°
2026-05-07 20:20 13.61145 77.37207 11424 ft 294 kts 145°
2026-05-07 20:21 13.59419 77.38325 11044 ft 292 kts 145°
2026-05-07 20:21 13.57622 77.39327 10653 ft 293 kts 155°
2026-05-07 20:21 13.55721 77.40093 10119 ft 297 kts 157°
2026-05-07 20:21 13.53750 77.40848 9457 ft 305 kts 157°
2026-05-07 20:22 13.51777 77.41603 8979 ft 305 kts 157°
2026-05-07 20:22 13.49788 77.42371 8554 ft 303 kts 157°
2026-05-07 20:22 13.47827 77.43137 8137 ft 301 kts 157°
2026-05-07 20:22 13.45875 77.43905 7718 ft 299 kts 157°
2026-05-07 20:23 13.43933 77.44672 7298 ft 297 kts 157°
2026-05-07 20:23 13.42648 77.45158 7092 ft 294 kts 161°
2026-05-07 20:23 13.40004 77.45649 6993 ft 294 kts 177°
2026-05-07 20:23 13.37954 77.45695 6989 ft 294 kts 178°
2026-05-07 20:24 13.35899 77.45720 6994 ft 293 kts 178°
2026-05-07 20:24 13.34568 77.45741 6993 ft 285 kts 178°
2026-05-07 20:24 13.32642 77.45786 6984 ft 265 kts 177°
2026-05-07 20:24 13.30889 77.45837 7026 ft 236 kts 176°
2026-05-07 20:25 13.29334 77.45726 6987 ft 214 kts 188°
2026-05-07 20:25 13.27865 77.45419 6995 ft 217 kts 193°
2026-05-07 20:25 13.26407 77.45067 7002 ft 215 kts 193°
2026-05-07 20:25 13.24941 77.44720 6999 ft 217 kts 192°
2026-05-07 20:26 13.23459 77.44471 6993 ft 217 kts 176°
2026-05-07 20:26 13.22091 77.44993 6998 ft 212 kts 136°
2026-05-07 20:26 13.21267 77.46216 6940 ft 205 kts 108°
2026-05-07 20:26 13.20949 77.47612 6686 ft 199 kts 94°
2026-05-07 20:27 13.20856 77.49029 6279 ft 198 kts 88°
2026-05-07 20:27 13.20857 77.50420 6183 ft 199 kts 88°
2026-05-07 20:27 13.20850 77.51857 6136 ft 201 kts 88°
2026-05-07 20:27 13.20836 77.53276 5890 ft 195 kts 88°
2026-05-07 20:28 13.20829 77.54639 5627 ft 189 kts 89°
2026-05-07 20:28 13.20818 77.55990 5386 ft 189 kts 89°
2026-05-07 20:28 13.20808 77.57339 5145 ft 189 kts 90°
2026-05-07 20:28 13.20798 77.58681 4906 ft 186 kts 90°
2026-05-07 20:29 13.20788 77.59980 4666 ft 176 kts 90°
2026-05-07 20:29 13.20778 77.61170 4459 ft 157 kts 91°
2026-05-07 20:29 13.20769 77.62230 4261 ft 141 kts 91°
2026-05-07 20:29 13.20761 77.63207 4089 ft 140 kts 91°
2026-05-07 20:30 13.20753 77.64211 3895 ft 141 kts 91°
2026-05-07 20:30 13.20745 77.65207 3726 ft 138 kts 91°
2026-05-07 20:30 13.20724 77.66204 3520 ft 142 kts 92°
2026-05-07 20:30 13.20715 77.67215 3332 ft 142 kts 89°
2026-05-07 20:31 13.20718 77.68221 3124 ft 139 kts 91°
2026-05-07 20:31 13.20704 77.69216 2971 ft 137 kts 91°
2026-05-07 20:31 13.20697 77.70077 2969 ft 100 kts 90°
2026-05-07 20:31 13.20698 77.70613 2969 ft 50 kts 91°
2026-05-07 20:32 13.20680 77.70883 2968 ft 23 kts 103°
2026-05-07 20:32 13.20616 77.71040 2967 ft 24 kts 120°
2026-05-07 20:32 13.20530 77.71184 2966 ft 22 kts 115°
2026-05-07 20:32 13.20484 77.71287 2962 ft 12 kts 156°
2026-05-07 20:33 13.20447 77.71284 2967 ft 1 kts 192°
2026-05-07 20:33 13.20424 77.71279 2968 ft 9 kts 191°
2026-05-07 20:33 13.20319 77.71275 2969 ft 17 kts 179°
2026-05-07 20:33 13.20264 77.71209 2969 ft 14 kts 256°
2026-05-07 20:34 13.20260 77.71099 2968 ft 17 kts 271°
2026-05-07 20:34 13.20262 77.70967 2968 ft 19 kts 270°
2026-05-07 20:34 13.20261 77.70820 2968 ft 21 kts 270°
2026-05-07 20:34 13.20263 77.70751 2968 ft 6 kts 271°
2026-05-07 20:35 13.20264 77.70698 2968 ft 9 kts 271°
2026-05-07 20:35 13.20265 77.70624 2969 ft 12 kts 270°
2026-05-07 20:35 13.20258 77.70592 2969 ft 1 kts 235°
2026-05-07 20:35 13.20243 77.70587 2969 ft 3 kts 198°
2026-05-07 20:36 13.20212 77.70587 2969 ft 6 kts 180°
2026-05-07 20:36 13.20174 77.70587 2969 ft 0 kts 180°
2026-05-07 20:36 13.20173 77.70587 2969 ft 0 kts 180°